Location: Spears Village
(29.9615°N, 95.2834°W)
Time: 05:17:16
(UTC+00:00)

N. Korean satellite - Visible Passes

Search period start: 28 January 2020 00:00
Search period end: 07 February 2020 00:00
Orbit: 454 x 507 km, 97.2° (Epoch: 27 January)

Date Brightness Start Highest point End Pass type
(mag) Time Alt. Az. Time Alt. Az. Time Alt. Az.
28 Jan 6.9 12:22:44 10° N 12:26:12 44° WNW 12:29:42 10° SSW visible
29 Jan 10.0 00:27:32 10° WSW 00:29:01 12° W 00:30:31 10° WNW visible
29 Jan 6.8 11:57:08 10° NNE 12:00:45 72° E 12:04:25 10° S visible
30 Jan 8.7 11:32:02 10° NE 11:35:15 29° E 11:38:29 10° SSE visible
31 Jan 10.0 11:07:52 10° ENE 11:09:40 13° E 11:11:27 10° SE visible
31 Jan 7.6 12:39:56 10° NNW 12:42:59 26° WNW 12:46:04 10° SW visible
01 Feb 6.6 12:13:59 10° N 12:17:36 61° WNW 12:21:14 10° SSW visible
02 Feb 9.8 00:18:05 10° SW 00:20:18 16° W 00:22:33 10° NW visible
02 Feb 7.4 11:48:32 10° NNE 11:52:08 53° E 11:55:44 10° S visible
03 Feb 9.2 11:23:39 10° NE 11:26:35 22° E 11:29:32 10° SSE visible
04 Feb 7.3 12:31:03 10° N 12:34:23 33° WNW 12:37:44 10° SW visible
05 Feb 6.5 12:05:16 10° N 12:08:58 83° WNW 12:12:40 10° SSW visible
06 Feb 8.1 11:39:58 10° NNE 11:43:28 39° E 11:46:56 10° S visible
